Main page
METAR-TAF:

METAR-TAF

Airports :

St. Paul Downtown Airport

Saint Paul, Minnesota, United States

latitude: 44-55-49N, longitude: 093-02-53W, elevation: 702 ft

Current weather observation

The report was made 25 minutes ago, at 09:53 UTC
Wind 14 mph from the East/Southeast with gusts up to 25 mph
Temperature 55°F
Humidity 38%
Pressure 29.86 in. Hg
Visibility: 10 miles
Clear sky

METAR: KSTP 160953Z AUTO 11012G22KT 10SM CLR 13/M01 A2986 RMK AO2 SLP110 T01331006

Time: 05:18 (10:18 UTC)


TAF: missing

Weather observations and forecasts of more than 4000 airports (METAR and TAF reports).

The available stations are represented by yellow and red dots on the map.

Hover mouse over dot to see the name of the station.

Then click to see weather observations and forecasts.

To change the map : click on the green buttons with a black cross to zoom in, on the green button with a dash to zoom out, or on the green arrows for adjacent maps.


METAR-TAF: